[[{"header":{"parameterUnit":"m.s-1","parameterCategory":2,"la1":30.2991,"la2":30.254,"lo1":-89.0895,"lo2":-89.0444,"dy":0.0017,"dx":0.0017,"nx":28,"ny":28,"refTime":"2024-02-02T09:00:00:Z","depth":"0","parameterNumber":2,"parameterNumberName":"U-component_of_CURRENTS"},"data":[0,0,0,0,0,0,0,0,0,0,0,0,0,0,0,0,0,0,0,0,0,0,0,0,0,0,0,0,0,0,0,0,0,0,0,0,0,0,0,0,0,0,0,0,0,0,0,0,0,0,0,0,0,0,0,0,0,0,-0.3486,-0.3487,0,-0.3575,-0.3575,-0.3576,-0.3523,-0.352,-0.3518,-0.3516,-0.352,-0.3522,-0.3525,0,0,0,0,0,0,0,0,0,0,0,0,0,-0.3228,-0.3233,-0.3486,-0.3487,-0.3488,-0.3574,-0.3575,-0.3576,-0.3523,-0.352,-0.3517,-0.3515,-0.3519,-0.3522,-0.3525,0,0,0,0,0,0,0,0,0,0,0,0,0,-0.333,-0.3235,-0.3485,-0.3473,-0.3473,-0.3574,-0.3575,-0.3577,-0.3524,-0.352,-0.3517,-0.3513,-0.3518,-0.3522,-0.3525,-0.3619,0,0,-0.3536,-0.3538,0,0,0,0,0,0,0,0,-0.3324,-0.3339,-0.3474,-0.3474,-0.3474,-0.3535,-0.3486,-0.3587,-0.3525,-0.3503,-0.3516,-0.3511,-0.3521,-0.3524,-0.3548,-0.362,-0.362,-0.3536,-0.3539,-0.354,-0.3541,0,0,0,0,0,0,0,-0.3317,-0.3334,-0.3519,-0.3475,-0.3476,-0.3449,-0.346,-0.3505,-0.3528,-0.3504,-0.3501,-0.3515,-0.352,-0.3545,-0.3547,-0.362,-0.3536,-0.3539,-0.3542,-0.3543,-0.3679,-0.368,0,0,0,0,0,0,-0.3317,-0.3329,-0.3516,-0.3522,-0.3391,-0.3457,-0.3469,-0.3518,-0.353,-0.3529,-0.3518,-0.3512,-0.354,-0.3543,-0.3547,-0.3568,-0.354,-0.3543,-0.3545,-0.3678,-0.3679,-0.3681,0,0,0,0,0,0,-0.3312,-0.3335,-0.3513,-0.3425,-0.3446,-0.3466,-0.3521,-0.3522,-0.3538,-0.3541,-0.3537,-0.3532,-0.3538,-0.3542,-0.3581,-0.3571,-0.3545,-0.3548,-0.3676,-0.3678,-0.368,-0.3668,0,0,0,0,0,0,-0.3305,-0.3333,-0.3374,-0.3428,-0.3452,-0.3563,-0.3525,-0.3526,-0.3553,-0.3546,-0.3553,-0.355,-0.3535,-0.3576,-0.3584,-0.3575,-0.3551,-0.3674,-0.3677,-0.3679,-0.3667,-0.367,-0.3672,0,0,0,0,0,-0.3296,-0.337,-0.3376,-0.3398,-0.3507,-0.3564,-0.3574,-0.3572,-0.3557,-0.3572,-0.3577,-0.3549,-0.3598,-0.3581,-0.3591,-0.3582,-0.3673,-0.3676,-0.3679,-0.3666,-0.3669,-0.3672,0,0,0,0,0,0,-0.329,-0.3374,-0.338,-0.348,-0.3511,-0.3555,-0.3583,-0.3587,-0.361,-0.3599,-0.359,-0.3589,-0.3606,-0.3622,-0.3603,-0.3632,-0.3624,-0.3629,-0.361,-0.3614,-0.3617,-0.3575,-0.3554,0,0,0,0,0,-0.331,-0.3377,-0.3436,-0.351,-0.353,-0.356,-0.3586,-0.3587,-0.3614,-0.3619,-0.3618,-0.3626,-0.3637,-0.3646,-0.3658,-0.3704,-0.3643,-0.3701,-0.3704,-0.3706,-0.3681,-0.3584,-0.3573,-0.3692,-0.3692,-0.3692,0,0,-0.3328,-0.3382,-0.3421,-0.351,-0.3537,-0.3574,-0.3566,-0.3611,-0.3625,-0.3621,-0.3638,-0.3639,-0.3653,-0.3672,-0.3682,-0.3679,-0.3646,-0.371,-0.3711,-0.3685,-0.3586,-0.3573,-0.3562,-0.3694,-0.3694,-0.3693,0,0,-0.3369,-0.3445,-0.3492,-0.3526,-0.3573,-0.3597,-0.3611,-0.3651,-0.3648,-0.3693,-0.3666,-0.3658,-0.3714,-0.3683,-0.3688,-0.3729,-0.366,-0.3746,-0.3729,-0.3636,-0.3623,-0.3611,-0.3524,-0.3504,-0.3751,-0.3751,-0.3751,0,-0.338,-0.3449,-0.351,-0.355,-0.3568,-0.3606,-0.3628,-0.3661,-0.3698,-0.3684,-0.3692,-0.3695,-0.3706,-0.3686,-0.3694,-0.3725,-0.3667,-0.3709,-0.3631,-0.3619,-0.3606,-0.352,-0.3498,-0.3751,-0.3751,-0.3751,-0.3751,0,-0.3434,-0.3482,-0.3514,-0.3571,-0.3607,-0.364,-0.368,-0.3699,-0.3708,-0.371,-0.3692,-0.37,-0.3681,-0.3695,-0.3716,-0.3645,-0.3629,-0.3636,-0.3606,-0.3592,-0.3505,-0.3482,-0.375,-0.3751,-0.3751,-0.3751,0,0,-0.3437,-0.3532,-0.3531,-0.352,-0.361,-0.3619,-0.3675,-0.3689,-0.3664,-0.37,-0.3643,-0.3678,-0.3648,-0.3651,-0.3649,-0.3587,-0.3468,-0.3584,-0.3579,-0.3468,-0.3253,-0.3212,-0.3183,-0.3453,-0.3449,-0.3446,-0.3226,0,-0.3431,-0.3469,-0.3543,-0.3548,-0.3544,-0.3609,-0.3634,-0.3655,-0.3667,-0.3628,-0.3623,-0.3582,-0.3645,-0.3607,-0.3563,-0.3489,-0.3408,-0.3526,-0.3309,-0.3302,-0.3241,-0.3155,-0.3088,-0.2883,-0.3204,-0.32,-0.3197,0,-0.3409,-0.3431,-0.3442,-0.3455,-0.3463,-0.3489,-0.3478,-0.3507,-0.3509,-0.351,-0.3493,-0.3489,-0.3431,-0.3464,-0.3324,-0.3398,-0.3319,-0.3262,-0.3252,-0.3193,-0.3217,-0.2951,-0.2829,-0.2831,-0.3162,-0.3165,-0.3167,0,-0.3257,-0.3327,-0.3313,-0.333,-0.3392,-0.339,-0.3414,-0.3441,-0.3429,-0.3403,-0.3374,-0.3338,-0.3282,-0.3203,-0.3169,-0.3214,-0.2984,-0.3024,-0.2903,-0.29,-0.2787,-0.2781,-0.2608,-0.2864,-0.2865,-0.2865,-0.2866,0,-0.3165,-0.3134,-0.3232,-0.3207,-0.3164,-0.3252,-0.3201,-0.3231,-0.3246,-0.3207,-0.3273,-0.3219,-0.3209,-0.3128,-0.3087,-0.2931,-0.2917,-0.2853,-0.282,-0.2788,-0.2784,-0.2739,-0.2777,-0.2857,-0.2859,-0.2861,-0.2862,0,-0.2963,-0.3043,-0.3004,-0.3068,-0.308,-0.3028,-0.3075,-0.3052,-0.3091,-0.3039,-0.3027,-0.3072,-0.2983,-0.2968,-0.2818,-0.2799,-0.2613,-0.2609,-0.2587,-0.2555,-0.2455,-0.2497,-0.2242,-0.2176,-0.2405,-0.2402,-0.24,0,-0.2858,-0.2827,-0.2865,-0.2851,-0.2877,-0.2851,-0.2856,-0.2932,-0.293,-0.2949,-0.2909,-0.2854,-0.2815,-0.2626,-0.2564,-0.2434,-0.2459,-0.2289,-0.236,-0.2392,-0.2413,-0.2442,-0.2408,-0.2206,-0.2202,-0.2199,-0.2197,0,-0.265,-0.2677,-0.2666,-0.2644,-0.2642,-0.2633,-0.265,-0.2634,-0.2731,-0.2717,-0.2696,-0.2665,-0.2556,-0.2429,-0.2306,-0.223,-0.2252,-0.2222,-0.2233,-0.2206,-0.2238,-0.2181,-0.2435,-0.217,-0.2173,-0.2175,-0.2177,-0.2178,-0.2495,-0.2444,-0.2459,-0.2422,-0.2433,-0.2423,-0.2358,-0.2426,-0.2404,-0.2388,-0.2457,-0.2397,-0.2353,-0.2183,-0.2102,-0.1978,-0.2021,-0.1939,-0.1971,-0.1986,-0.1959,-0.2165,-0.1896,-0.1897,-0.1898,-0.1899,-0.19,0,-0.2298,-0.2281,-0.2247,-0.221,-0.2169,-0.2232,-0.223,-0.217,-0.2118,-0.2177,-0.2146,-0.214,-0.2014,-0.198,-0.1871,-0.178,-0.1744,-0.1738,-0.1769,-0.1734,-0.1872,-0.1907,-0.1654,-0.1654,-0.1654,-0.1654,-0.1654,-0.1654,-0.2192,-0.2104,-0.2099,-0.1969,-0.1952,-0.1841,-0.1809,-0.177,-0.1777,-0.1751,-0.1789,-0.1858,-0.1862,-0.1945,-0.1812,-0.1714,-0.1674,-0.161,-0.1619,-0.1773,-0.1797,-0.1819,-0.186,-0.16,-0.16,-0.1436,-0.1436,-0.1435]},{"header":{"parameterUnit":"m.s-1","parameterCategory":2,"la1":30.2991,"la2":30.254,"lo1":-89.0895,"lo2":-89.0444,"dy":0.0017,"dx":0.0017,"nx":28,"ny":28,"refTime":"2024-02-02T09:00:00:Z","depth":"0","parameterNumber":3,"parameterNumberName":"V-component_of_CURRENTS"},"data":[0,0,0,0,0,0,0,0,0,0,0,0,0,0,0,0,0,0,0,0,0,0,0,0,0,0,0,0,0,0,0,0,0,0,0,0,0,0,0,0,0,0,0,0,0,0,0,0,0,0,0,0,0,0,0,0,0,0,-0.0522,-0.0521,0,-0.0427,-0.0426,-0.0424,-0.0365,-0.0365,-0.0365,-0.0365,-0.0176,-0.0171,-0.0166,0,0,0,0,0,0,0,0,0,0,0,0,0,-0.0565,-0.0565,-0.0522,-0.0521,-0.052,-0.0427,-0.0426,-0.0424,-0.0365,-0.0365,-0.0365,-0.0365,-0.0178,-0.0172,-0.0166,0,0,0,0,0,0,0,0,0,0,0,0,0,-0.0515,-0.0565,-0.0522,-0.0481,-0.0476,-0.0427,-0.0425,-0.0424,-0.0365,-0.0365,-0.0365,-0.0365,-0.0179,-0.0172,-0.0165,-0.0125,0,0,-0.0143,-0.014,0,0,0,0,0,0,0,0,-0.0518,-0.0513,-0.0488,-0.0483,-0.0478,-0.0409,-0.0372,-0.032,-0.0365,-0.0406,-0.0365,-0.0364,-0.0246,-0.0234,-0.0215,-0.0116,-0.0108,-0.0142,-0.0138,-0.0135,-0.0133,0,0,0,0,0,0,0,-0.0521,-0.0516,-0.0483,-0.0487,-0.0481,-0.0437,-0.043,-0.0361,-0.0326,-0.0402,-0.0398,-0.039,-0.0243,-0.0223,-0.021,-0.0105,-0.0142,-0.0136,-0.0131,-0.0129,0.0102,0.0104,0,0,0,0,0,0,-0.0541,-0.052,-0.0486,-0.048,-0.05,-0.0437,-0.0429,-0.043,-0.0328,-0.0314,-0.039,-0.0388,-0.0235,-0.0219,-0.0203,-0.0128,-0.0135,-0.0128,-0.0124,0.01,0.0102,0.0104,0,0,0,0,0,0,-0.0543,-0.054,-0.049,-0.0498,-0.0489,-0.0437,-0.0438,-0.0428,-0.0413,-0.0321,-0.0304,-0.0386,-0.0234,-0.0213,-0.013,-0.0121,-0.0125,-0.0118,0.0098,0.0101,0.0103,0.0009,0,0,0,0,0,0,-0.0545,-0.0541,-0.055,-0.05,-0.049,-0.0469,-0.0438,-0.0427,-0.0409,-0.0404,-0.0311,-0.0293,-0.0233,-0.0142,-0.0123,-0.0111,-0.0112,0.0096,0.01,0.0103,0.001,0.0008,0.0007,0,0,0,0,0,-0.0547,-0.0564,-0.0552,-0.0547,-0.0504,-0.0469,-0.046,-0.0419,-0.0409,-0.0404,-0.0328,-0.0296,-0.0107,-0.0135,-0.0113,-0.0099,0.0095,0.0099,0.0102,0.0011,0.0009,0.0007,0,0,0,0,0,0,-0.0594,-0.0558,-0.0544,-0.0551,-0.0516,-0.046,-0.0455,-0.0429,-0.0368,-0.0362,-0.0277,-0.0253,-0.018,-0.0116,-0.0149,-0.0017,0.0001,0.0009,-0.0076,-0.0077,-0.0079,-0.0093,-0.0106,0,0,0,0,0,-0.0609,-0.0611,-0.0565,-0.0574,-0.0559,-0.051,-0.0493,-0.0465,-0.0406,-0.0382,-0.0314,-0.0227,-0.0146,-0.0097,-0.0023,0.005,0.0092,0.0079,0.0077,0.0075,0.0082,0.0157,0.0161,0.0117,0.0117,0.0117,0,0,-0.0632,-0.0612,-0.0614,-0.0583,-0.0554,-0.0533,-0.0499,-0.0479,-0.0452,-0.0368,-0.031,-0.024,-0.013,-0.0052,-0.0012,0.0003,0.0106,0.008,0.0077,0.0086,0.0162,0.0165,0.0169,0.012,0.0119,0.0119,0,0,-0.0674,-0.0659,-0.0671,-0.0642,-0.0604,-0.0563,-0.0562,-0.0506,-0.0473,-0.041,-0.0338,-0.0259,-0.0144,-0.0058,0.0001,0.0041,0.0084,0.0065,0.0055,0.0126,0.0129,0.0133,0.0158,0.0165,0.0075,0.0075,0.0075,0,-0.0705,-0.0708,-0.0669,-0.0663,-0.0642,-0.0581,-0.0576,-0.0528,-0.045,-0.041,-0.0402,-0.0219,-0.0143,-0.0022,-0.0007,0.0034,0.0066,0.0041,0.0119,0.0124,0.0129,0.0155,0.0163,0.0071,0.0071,0.0072,0.0072,0,-0.0745,-0.0743,-0.0747,-0.0714,-0.0684,-0.0673,-0.06,-0.0561,-0.0516,-0.0456,-0.0352,-0.0246,-0.0132,-0.0096,-0.0038,0.0051,0.0056,0.009,0.0108,0.0127,0.0154,0.0164,0.0065,0.0067,0.0068,0.0069,0,0,-0.0824,-0.0785,-0.0786,-0.0774,-0.071,-0.0689,-0.0635,-0.056,-0.052,-0.0435,-0.0372,-0.0231,-0.0178,-0.0105,-0.0023,0.0047,0.0093,0.0079,0.0085,0.0075,0.0216,0.0249,0.0264,0.0133,0.0135,0.0137,0.0206,0,-0.0868,-0.0877,-0.0834,-0.0823,-0.0815,-0.0733,-0.0686,-0.0606,-0.053,-0.0452,-0.0325,-0.0239,-0.0176,-0.0131,-0.0048,0.006,0.0122,0.0069,0.0228,0.0232,0.0235,0.0279,0.0318,0.0387,0.0216,0.0218,0.0219,0,-0.0915,-0.0911,-0.0921,-0.0867,-0.0856,-0.0834,-0.0743,-0.0693,-0.0557,-0.0498,-0.0383,-0.0288,-0.0156,-0.0122,0.0068,0.0027,0.0117,0.0192,0.0198,0.0274,0.0287,0.0354,0.0413,0.0565,0.0236,0.0235,0.0233,0,-0.0984,-0.0963,-0.0974,-0.0958,-0.0892,-0.0873,-0.0828,-0.0712,-0.066,-0.0529,-0.0481,-0.0314,-0.0234,-0.0092,0.0076,0.0068,0.0265,0.0275,0.0389,0.039,0.0482,0.0489,0.069,0.0409,0.0409,0.0409,0.0408,0,-0.1038,-0.104,-0.1012,-0.1016,-0.101,-0.0942,-0.0908,-0.0834,-0.073,-0.0659,-0.0516,-0.0425,-0.0221,-0.0074,0.0063,0.026,0.0261,0.0398,0.0428,0.0449,0.0451,0.0636,0.0683,0.0411,0.0411,0.041,0.041,0,-0.1097,-0.1085,-0.109,-0.1054,-0.1044,-0.1039,-0.0972,-0.0939,-0.0839,-0.0747,-0.071,-0.0506,-0.0312,-0.0111,0.0121,0.0244,0.0519,0.0493,0.0481,0.0509,0.0742,0.078,0.0994,0.1086,0.0615,0.0616,0.0617,0,-0.1121,-0.1139,-0.1134,-0.1141,-0.1129,-0.1112,-0.1096,-0.1005,-0.0957,-0.0782,-0.0737,-0.0534,-0.0352,-0.0013,0.0238,0.0481,0.0602,0.0649,0.0662,0.078,0.0846,0.0865,0.0927,0.0728,0.073,0.0732,0.0733,0,-0.1158,-0.1166,-0.1173,-0.1203,-0.1207,-0.12,-0.1166,-0.1139,-0.1015,-0.0919,-0.0745,-0.0594,-0.0245,0.0086,0.0401,0.0544,0.076,0.069,0.0845,0.0987,0.0993,0.1086,0.0617,0.0749,0.0747,0.0746,0.0745,0.0745,-0.1176,-0.1197,-0.122,-0.1242,-0.126,-0.1265,-0.1242,-0.1179,-0.1094,-0.0906,-0.0763,-0.0494,-0.0031,0.0437,0.0608,0.096,0.0906,0.1065,0.1106,0.1117,0.1215,0.0756,0.0905,0.0905,0.0904,0.0904,0.0903,0,-0.1181,-0.1214,-0.1249,-0.1277,-0.1311,-0.1307,-0.1265,-0.1211,-0.1098,-0.0895,-0.0696,-0.0157,0.029,0.0696,0.1194,0.1381,0.1417,0.146,0.1518,0.1566,0.1203,0.122,0.1407,0.1407,0.1407,0.1407,0.1406,0.1406,-0.118,-0.1221,-0.1249,-0.1309,-0.1333,-0.1335,-0.1304,-0.12,-0.1038,-0.0681,-0.0353,-0.0087,0.0498,0.1303,0.1754,0.1778,0.1941,0.19,0.1992,0.1757,0.1723,0.1691,0.1724,0.2013,0.2013,0.2357,0.236,0.2363]}],[{"header":{"parameterUnit":"m.s-1","parameterCategory":2,"la1":30.2991,"la2":30.254,"lo1":-89.0895,"lo2":-89.0444,"dy":0.0017,"dx":0.0017,"nx":28,"ny":28,"refTime":"2024-02-02T09:00:00:Z","depth":"2","parameterNumber":2,"parameterNumberName":"U-component_of_CURRENTS"},"data":[0,0,0,0,0,0,0,0,0,0,0,0,0,0,0,0,0,0,0,0,0,0,0,0,0,0,0,0,0,0,0,0,0,0,0,0,0,0,0,0,0,0,0,0,0,0,0,0,0,0,0,0,0,0,0,0,0,0,-0.2984,-0.2984,0,-0.3018,-0.3018,-0.3018,-0.2989,-0.2988,-0.2987,-0.2986,-0.3012,-0.3013,-0.3015,0,0,0,0,0,0,0,0,0,0,0,0,0,-0.2846,-0.2849,-0.2984,-0.2984,-0.2985,-0.3018,-0.3018,-0.3018,-0.2989,-0.2988,-0.2986,-0.2985,-0.3011,-0.3013,-0.3015,0,0,0,0,0,0,0,0,0,0,0,0,0,-0.2894,-0.285,-0.2984,-0.2976,-0.2975,-0.3018,-0.3018,-0.3018,-0.2989,-0.2988,-0.2986,-0.2985,-0.301,-0.3013,-0.3015,-0.3062,0,0,-0.3023,-0.3024,0,0,0,0,0,0,0,0,-0.2891,-0.2899,-0.2976,-0.2976,-0.2976,-0.2999,-0.2979,-0.3033,-0.2989,-0.2982,-0.2986,-0.2984,-0.3009,-0.3012,-0.3019,-0.3063,-0.3064,-0.3023,-0.3025,-0.3026,-0.3026,0,0,0,0,0,0,0,-0.2888,-0.2897,-0.2995,-0.2977,-0.2977,-0.2954,-0.296,-0.2989,-0.3002,-0.2982,-0.2981,-0.2988,-0.3008,-0.3016,-0.3019,-0.3064,-0.3023,-0.3025,-0.3027,-0.3028,-0.312,-0.3121,0,0,0,0,0,0,-0.2893,-0.2895,-0.2994,-0.2996,-0.2931,-0.2958,-0.2964,-0.2992,-0.3002,-0.3003,-0.299,-0.2987,-0.3013,-0.3016,-0.302,-0.3069,-0.3026,-0.3028,-0.3029,-0.3119,-0.312,-0.3121,0,0,0,0,0,0,-0.289,-0.2902,-0.2993,-0.2946,-0.2956,-0.2963,-0.2994,-0.2993,-0.3023,-0.3008,-0.3007,-0.3022,-0.3012,-0.3016,-0.3046,-0.3069,-0.3029,-0.3031,-0.3118,-0.312,-0.3121,-0.3171,0,0,0,0,0,0,-0.2886,-0.2902,-0.2925,-0.2947,-0.2959,-0.3025,-0.2995,-0.2995,-0.3029,-0.3027,-0.3036,-0.3035,-0.3011,-0.3043,-0.3049,-0.3072,-0.3033,-0.3117,-0.3119,-0.312,-0.3168,-0.3174,-0.3179,0,0,0,0,0,-0.2882,-0.2911,-0.2926,-0.2938,-0.2991,-0.3027,-0.3031,-0.3027,-0.3033,-0.3049,-0.3048,-0.3036,-0.3058,-0.3046,-0.3053,-0.3077,-0.3116,-0.3118,-0.312,-0.3165,-0.3172,-0.3178,0,0,0,0,0,0,-0.2867,-0.2912,-0.2928,-0.2973,-0.3005,-0.3022,-0.3036,-0.3055,-0.3071,-0.3067,-0.3059,-0.3059,-0.3085,-0.3085,-0.3072,-0.3107,-0.3082,-0.3086,-0.3114,-0.3121,-0.3126,-0.3102,-0.3035,0,0,0,0,0,-0.2879,-0.2909,-0.2953,-0.299,-0.3009,-0.3037,-0.3055,-0.3061,-0.3078,-0.3084,-0.3095,-0.3098,-0.31,-0.3113,-0.3111,-0.3154,-0.3091,-0.3169,-0.3175,-0.318,-0.3163,-0.3069,-0.3063,-0.3129,-0.3129,-0.3129,0,0,-0.2887,-0.2913,-0.2933,-0.2988,-0.3011,-0.304,-0.3044,-0.3077,-0.3092,-0.3087,-0.3115,-0.3122,-0.3114,-0.3133,-0.3147,-0.3139,-0.3135,-0.3182,-0.3186,-0.3167,-0.307,-0.3063,-0.3057,-0.313,-0.313,-0.313,0,0,-0.2895,-0.2942,-0.2962,-0.2996,-0.3037,-0.3054,-0.3077,-0.3118,-0.3122,-0.3167,-0.3146,-0.3155,-0.3203,-0.3168,-0.3165,-0.3207,-0.316,-0.3237,-0.3255,-0.3164,-0.3157,-0.315,-0.3082,-0.3068,-0.3247,-0.3247,-0.3247,0,-0.2898,-0.2934,-0.2974,-0.3002,-0.3022,-0.3069,-0.3091,-0.3115,-0.3157,-0.3159,-0.3177,-0.3198,-0.32,-0.3185,-0.3204,-0.3215,-0.3172,-0.3232,-0.3167,-0.3159,-0.315,-0.3082,-0.3066,-0.3249,-0.3249,-0.3249,-0.3248,0,-0.2908,-0.2951,-0.2968,-0.3015,-0.3047,-0.3076,-0.3115,-0.3144,-0.3177,-0.3195,-0.3209,-0.3207,-0.3207,-0.3229,-0.3242,-0.3202,-0.3195,-0.3177,-0.3144,-0.3146,-0.3076,-0.3058,-0.3253,-0.3252,-0.3251,-0.3251,0,0,-0.2887,-0.2955,-0.2971,-0.2978,-0.3052,-0.3067,-0.3108,-0.3135,-0.3136,-0.3193,-0.3177,-0.3214,-0.3222,-0.3217,-0.3223,-0.3178,-0.3104,-0.3179,-0.3173,-0.3101,-0.2926,-0.2876,-0.2852,-0.3084,-0.3081,-0.3078,-0.2907,0,-0.288,-0.2911,-0.2958,-0.2991,-0.3004,-0.306,-0.308,-0.3114,-0.3147,-0.3147,-0.3155,-0.3147,-0.3214,-0.3207,-0.318,-0.3115,-0.3059,-0.3153,-0.2944,-0.2938,-0.2882,-0.2829,-0.2668,-0.2497,-0.2889,-0.2886,-0.2884,0,-0.287,-0.2887,-0.2908,-0.2942,-0.2954,-0.2981,-0.2999,-0.3022,-0.3048,-0.3071,-0.3092,-0.3102,-0.3074,-0.3103,-0.2997,-0.3065,-0.3001,-0.2952,-0.2943,-0.2858,-0.2853,-0.2555,-0.2449,-0.2854,-0.2856,-0.2858,-0.286,0,-0.2788,-0.2852,-0.2851,-0.2871,-0.2922,-0.2929,-0.2953,-0.2996,-0.2992,-0.3005,-0.3003,-0.2996,-0.2961,-0.2899,-0.2873,-0.2916,-0.2728,-0.2748,-0.2634,-0.263,-0.2427,-0.2411,-0.2616,-0.2616,-0.2617,-0.2617,-0.2618,0,-0.274,-0.2741,-0.281,-0.2803,-0.2781,-0.2855,-0.2832,-0.2864,-0.2891,-0.2873,-0.2944,-0.2911,-0.2908,-0.284,-0.281,-0.2677,-0.2665,-0.2605,-0.2564,-0.2446,-0.2435,-0.2695,-0.2706,-0.2611,-0.2612,-0.2613,-0.2615,0,-0.263,-0.2689,-0.267,-0.2721,-0.2733,-0.2708,-0.2746,-0.2738,-0.2789,-0.276,-0.2757,-0.2803,-0.2728,-0.2713,-0.2585,-0.2564,-0.2446,-0.2393,-0.2281,-0.223,-0.2426,-0.2443,-0.2221,-0.2217,-0.2214,-0.2212,-0.221,0,-0.2561,-0.2549,-0.2579,-0.2567,-0.2585,-0.2581,-0.2584,-0.2658,-0.2661,-0.2689,-0.2658,-0.2617,-0.2579,-0.2414,-0.2337,-0.2218,-0.2316,-0.2004,-0.2044,-0.2394,-0.2377,-0.2398,-0.2418,-0.1798,-0.1793,-0.1789,-0.1785,0,-0.2408,-0.2432,-0.2419,-0.2405,-0.2408,-0.2398,-0.2419,-0.2412,-0.2495,-0.249,-0.2471,-0.244,-0.2331,-0.2153,-0.2034,-0.1953,-0.2023,-0.1912,-0.2225,-0.1954,-0.1988,-0.1976,-0.2009,-0.1746,-0.175,-0.1753,-0.1755,-0.1757,-0.2281,-0.2237,-0.2243,-0.2215,-0.2227,-0.2215,-0.2157,-0.2212,-0.2191,-0.2159,-0.2233,-0.2126,-0.2092,-0.1826,-0.1708,-0.1614,-0.1758,-0.1681,-0.1696,-0.1715,-0.1726,-0.1757,-0.1474,-0.1476,-0.1478,-0.1479,-0.1481,0,-0.2104,-0.2088,-0.2059,-0.2023,-0.1981,-0.2044,-0.2039,-0.1965,-0.1906,-0.1919,-0.1876,-0.1658,-0.1543,-0.1508,-0.1312,-0.1273,-0.1274,-0.1211,-0.1223,-0.1261,-0.1296,-0.1289,-0.0918,-0.0916,-0.0915,-0.0913,0,0,-0.2006,-0.1922,-0.1915,-0.1791,-0.1777,-0.1665,-0.1633,-0.1565,-0.1532,-0.1418,-0.1364,-0.1456,-0.148,-0.1211,-0.1137,-0.1,-0.1121,-0.0943,-0.1395,-0.1448,-0.148,-0.1563,-0.1595,0,0,0,0,0]},{"header":{"parameterUnit":"m.s-1","parameterCategory":2,"la1":30.2991,"la2":30.254,"lo1":-89.0895,"lo2":-89.0444,"dy":0.0017,"dx":0.0017,"nx":28,"ny":28,"refTime":"2024-02-02T09:00:00:Z","depth":"2","parameterNumber":3,"parameterNumberName":"V-component_of_CURRENTS"},"data":[0,0,0,0,0,0,0,0,0,0,0,0,0,0,0,0,0,0,0,0,0,0,0,0,0,0,0,0,0,0,0,0,0,0,0,0,0,0,0,0,0,0,0,0,0,0,0,0,0,0,0,0,0,0,0,0,0,0,-0.0566,-0.0566,0,-0.05,-0.05,-0.0499,-0.0442,-0.0442,-0.0441,-0.044,-0.0285,-0.0281,-0.0278,0,0,0,0,0,0,0,0,0,0,0,0,0,-0.0584,-0.0585,-0.0566,-0.0566,-0.0565,-0.0501,-0.05,-0.0499,-0.0442,-0.0442,-0.0441,-0.044,-0.0286,-0.0282,-0.0277,0,0,0,0,0,0,0,0,0,0,0,0,0,-0.0553,-0.0585,-0.0566,-0.0529,-0.0525,-0.0501,-0.05,-0.0498,-0.0442,-0.0442,-0.0441,-0.044,-0.0287,-0.0282,-0.0277,-0.0261,0,0,-0.026,-0.0258,0,0,0,0,0,0,0,0,-0.0555,-0.0552,-0.0536,-0.0532,-0.0527,-0.0479,-0.0449,-0.0415,-0.0443,-0.0473,-0.044,-0.0439,-0.0342,-0.0332,-0.0322,-0.0254,-0.0247,-0.026,-0.0256,-0.0254,-0.0253,0,0,0,0,0,0,0,-0.0557,-0.0555,-0.054,-0.0535,-0.053,-0.0496,-0.0491,-0.0442,-0.0411,-0.0471,-0.0467,-0.046,-0.0339,-0.0328,-0.0318,-0.0245,-0.026,-0.0255,-0.0252,-0.025,-0.0101,-0.01,0,0,0,0,0,0,-0.0571,-0.0557,-0.0542,-0.0538,-0.054,-0.0496,-0.0491,-0.0495,-0.0414,-0.0401,-0.0461,-0.0458,-0.0338,-0.0324,-0.0312,-0.0252,-0.0254,-0.0249,-0.0246,-0.0101,-0.01,-0.01,0,0,0,0,0,0,-0.0572,-0.057,-0.0544,-0.0545,-0.054,-0.0498,-0.0502,-0.0494,-0.0481,-0.0408,-0.0393,-0.0456,-0.0336,-0.032,-0.0267,-0.0247,-0.0247,-0.0242,-0.0102,-0.0101,-0.01,-0.0156,0,0,0,0,0,0,-0.0573,-0.0571,-0.0583,-0.0547,-0.054,-0.0534,-0.0503,-0.0494,-0.0479,-0.0474,-0.0399,-0.0384,-0.0334,-0.0275,-0.0262,-0.024,-0.0237,-0.0103,-0.0102,-0.01,-0.0155,-0.0157,-0.0158,0,0,0,0,0,-0.0574,-0.0594,-0.0584,-0.0582,-0.0557,-0.0534,-0.0528,-0.0494,-0.048,-0.0478,-0.0424,-0.0386,-0.0256,-0.0271,-0.0255,-0.0231,-0.0104,-0.0102,-0.01,-0.0154,-0.0156,-0.0158,0,0,0,0,0,0,-0.0614,-0.059,-0.0577,-0.0592,-0.0566,-0.0525,-0.0525,-0.0501,-0.046,-0.0454,-0.0384,-0.0365,-0.0311,-0.0266,-0.0284,-0.0183,-0.017,-0.0165,-0.0216,-0.0218,-0.022,-0.022,-0.0233,0,0,0,0,0,-0.0629,-0.0636,-0.0602,-0.0616,-0.0605,-0.0567,-0.0555,-0.0532,-0.0491,-0.0473,-0.0418,-0.0353,-0.0293,-0.0254,-0.0201,-0.015,-0.0109,-0.012,-0.0122,-0.0124,-0.0113,-0.0043,-0.0037,-0.0094,-0.0094,-0.0094,0,0,-0.065,-0.0637,-0.0643,-0.0624,-0.0603,-0.0591,-0.0558,-0.0546,-0.0529,-0.0461,-0.0422,-0.0364,-0.0284,-0.0226,-0.0196,-0.0183,-0.009,-0.0122,-0.0124,-0.0111,-0.004,-0.0035,-0.003,-0.0093,-0.0093,-0.0094,0,0,-0.0692,-0.0684,-0.0698,-0.0677,-0.065,-0.062,-0.0619,-0.0576,-0.055,-0.051,-0.045,-0.0384,-0.0302,-0.0232,-0.0187,-0.0165,-0.011,-0.0144,-0.0141,-0.0075,-0.007,-0.0065,-0.0028,-0.0019,-0.0135,-0.0135,-0.0135,0,-0.0719,-0.0728,-0.0699,-0.0699,-0.0684,-0.0635,-0.0636,-0.0604,-0.0547,-0.0514,-0.0505,-0.036,-0.0301,-0.0203,-0.0191,-0.0168,-0.0131,-0.0145,-0.0078,-0.0072,-0.0066,-0.0029,-0.0018,-0.0138,-0.0138,-0.0137,-0.0137,0,-0.076,-0.0763,-0.0769,-0.0749,-0.0728,-0.0724,-0.0671,-0.0643,-0.0605,-0.0556,-0.0469,-0.0386,-0.029,-0.0259,-0.0216,-0.0129,-0.0119,-0.0101,-0.0079,-0.0064,-0.0026,-0.0014,-0.0141,-0.014,-0.014,-0.0139,0,0,-0.0828,-0.0804,-0.0805,-0.0797,-0.0753,-0.0739,-0.0707,-0.0651,-0.0616,-0.0547,-0.0487,-0.0374,-0.0316,-0.026,-0.019,-0.0121,-0.0057,-0.009,-0.0085,-0.0064,0.0075,0.0104,0.012,-0.0025,-0.0023,-0.0021,0.0075,0,-0.0867,-0.0882,-0.0851,-0.0849,-0.0847,-0.0784,-0.0754,-0.0693,-0.063,-0.056,-0.0451,-0.0374,-0.0319,-0.0271,-0.0191,-0.009,-0.0023,-0.0085,0.0069,0.0073,0.0088,0.0136,0.0098,0.0183,0.0087,0.0089,0.0091,0,-0.0911,-0.0912,-0.0927,-0.0887,-0.0879,-0.0867,-0.0796,-0.0762,-0.0647,-0.0594,-0.0486,-0.0403,-0.0276,-0.0247,-0.006,-0.0102,-0.0013,0.006,0.0065,0.0126,0.0126,0.016,0.0209,0.0111,0.0109,0.0108,0.0107,0,-0.0969,-0.0958,-0.0972,-0.0962,-0.0914,-0.0901,-0.0868,-0.0773,-0.0731,-0.0613,-0.0563,-0.0408,-0.0329,-0.0193,-0.0034,-0.0044,0.0159,0.0157,0.0267,0.0268,0.0286,0.0285,0.0291,0.0291,0.0291,0.0291,0.029,0,-0.1017,-0.1023,-0.1003,-0.101,-0.1008,-0.0956,-0.0927,-0.0868,-0.0776,-0.0713,-0.0585,-0.0499,-0.0309,-0.0166,-0.0035,0.0159,0.016,0.0285,0.0311,0.0263,0.026,0.024,0.0233,0.0294,0.0293,0.0293,0.0292,0,-0.1071,-0.1062,-0.1073,-0.1046,-0.1039,-0.1038,-0.0983,-0.0955,-0.0863,-0.078,-0.0744,-0.0558,-0.0369,-0.0182,0.0043,0.0156,0.0329,0.0395,0.0314,0.0329,0.0386,0.0375,0.0521,0.0523,0.0525,0.0527,0.0528,0,-0.1094,-0.1112,-0.1113,-0.1122,-0.1114,-0.1102,-0.1091,-0.1011,-0.0968,-0.0806,-0.0764,-0.0569,-0.04,-0.0069,0.0154,0.0389,0.0391,0.0485,0.0472,0.0408,0.0418,0.0403,0.039,0.0458,0.0459,0.0459,0.046,0,-0.1131,-0.114,-0.1149,-0.118,-0.1187,-0.1183,-0.1155,-0.1128,-0.1017,-0.0927,-0.0764,-0.0623,-0.0297,-0.0024,0.0274,0.0398,0.0442,0.0503,0.0486,0.0405,0.0357,0.0363,0.0351,0.0464,0.0464,0.0463,0.0463,0.0463,-0.1149,-0.1171,-0.1195,-0.1219,-0.1238,-0.1244,-0.1225,-0.1166,-0.1088,-0.0914,-0.0779,-0.054,-0.0282,0.0152,0.0358,0.053,0.0525,0.0565,0.056,0.0556,0.0531,0.049,0.0614,0.0615,0.0615,0.0616,0.0616,0,-0.1156,-0.1189,-0.1224,-0.1253,-0.1287,-0.1286,-0.1247,-0.1194,-0.1088,-0.0906,-0.072,-0.0421,-0.011,0.0144,0.0432,0.0612,0.0579,0.0624,0.0551,0.0546,0.0541,0.0513,0.0593,0.0594,0.0594,0.0595,0,0,-0.1156,-0.1197,-0.1223,-0.1283,-0.1308,-0.1312,-0.1284,-0.1182,-0.1034,-0.0836,-0.065,-0.04,-0.0088,0.0117,0.0333,0.0478,0.0462,0.0478,0.0476,0.0358,0.0352,0.0485,0.0434,0,0,0,0,0]}],[{"header":{"parameterUnit":"m.s-1","parameterCategory":2,"la1":30.2991,"la2":30.254,"lo1":-89.0895,"lo2":-89.0444,"dy":0.0017,"dx":0.0017,"nx":28,"ny":28,"refTime":"2024-02-02T09:00:00:Z","depth":"4","parameterNumber":2,"parameterNumberName":"U-component_of_CURRENTS"},"data":[0,0,0,0,0,0,0,0,0,0,0,0,0,0,0,0,0,0,0,0,0,0,0,0,0,0,0,0,0,0,0,0,0,0,0,0,0,0,0,0,0,0,0,0,0,0,0,0,0,0,0,0,0,0,0,0,0,0,-0.1793,-0.1794,0,-0.1848,-0.1848,-0.1849,-0.1914,-0.1915,-0.1916,-0.1917,-0.1949,-0.1949,-0.1949,0,0,0,0,0,0,0,0,0,0,0,0,0,-0.1756,-0.1757,-0.1793,-0.1794,-0.1794,-0.1847,-0.1848,-0.1849,-0.1913,-0.1915,-0.1916,-0.1917,-0.1949,-0.1949,-0.1949,0,0,0,0,0,0,0,0,0,0,0,0,0,-0.1788,-0.1757,-0.1793,-0.1833,-0.1837,-0.1847,-0.1848,-0.1849,-0.1913,-0.1915,-0.1916,-0.1918,-0.1949,-0.1949,-0.1949,-0.1918,0,0,-0.1949,-0.1949,0,0,0,0,0,0,0,0,-0.1786,-0.1789,-0.1826,-0.183,-0.1835,-0.1875,-0.1847,-0.1871,-0.1913,-0.1884,-0.1917,-0.1918,-0.1922,-0.1924,-0.1931,-0.192,-0.1921,-0.1949,-0.1949,-0.1949,-0.1949,0,0,0,0,0,0,0,-0.1783,-0.1787,-0.1814,-0.1827,-0.1832,-0.1852,-0.1858,-0.1852,-0.1893,-0.1887,-0.1892,-0.1897,-0.1924,-0.1931,-0.1932,-0.1922,-0.1949,-0.1949,-0.1949,-0.1949,-0.1972,-0.1973,0,0,0,0,0,0,-0.1775,-0.1785,-0.1813,-0.1816,-0.1814,-0.1852,-0.1859,-0.1861,-0.1894,-0.1901,-0.1896,-0.19,-0.193,-0.1932,-0.1933,-0.1973,-0.1949,-0.1949,-0.1949,-0.1971,-0.1972,-0.1973,0,0,0,0,0,0,-0.1773,-0.1776,-0.1811,-0.1802,-0.1808,-0.1851,-0.1853,-0.1861,-0.1903,-0.1901,-0.1908,-0.1934,-0.1932,-0.1934,-0.1962,-0.1972,-0.1949,-0.1949,-0.1971,-0.1972,-0.1973,-0.2004,0,0,0,0,0,0,-0.1772,-0.1775,-0.1786,-0.1801,-0.1808,-0.1836,-0.1852,-0.1861,-0.1902,-0.1909,-0.1934,-0.1937,-0.1933,-0.1962,-0.1962,-0.1971,-0.1948,-0.197,-0.1971,-0.1972,-0.2002,-0.2006,-0.2009,0,0,0,0,0,-0.1771,-0.1775,-0.1786,-0.1791,-0.1817,-0.1836,-0.1842,-0.1877,-0.1903,-0.1921,-0.1946,-0.1939,-0.197,-0.1963,-0.1962,-0.1972,-0.1969,-0.1971,-0.1972,-0.2,-0.2005,-0.2009,0,0,0,0,0,0,-0.177,-0.1782,-0.1795,-0.1805,-0.1829,-0.1848,-0.1871,-0.1893,-0.1927,-0.1946,-0.1948,-0.1952,-0.198,-0.1972,-0.1964,-0.1983,-0.1967,-0.1969,-0.1988,-0.1993,-0.1996,-0.1981,-0.1948,0,0,0,0,0,-0.1771,-0.1778,-0.1796,-0.1809,-0.1822,-0.1853,-0.1871,-0.1897,-0.1921,-0.1941,-0.1959,-0.1974,-0.1977,-0.1986,-0.199,-0.1999,-0.1982,-0.2004,-0.2008,-0.2011,-0.1999,-0.1989,-0.199,-0.1978,-0.1978,-0.1978,0,0,-0.177,-0.1783,-0.1786,-0.181,-0.1834,-0.1852,-0.1869,-0.1907,-0.1926,-0.1935,-0.1978,-0.1991,-0.1985,-0.2,-0.201,-0.2,-0.2009,-0.2013,-0.2016,-0.2001,-0.199,-0.1991,-0.1992,-0.1979,-0.1979,-0.1979,0,0,-0.1771,-0.1791,-0.1797,-0.1821,-0.1861,-0.1875,-0.1892,-0.193,-0.1955,-0.1989,-0.1999,-0.2016,-0.2037,-0.2025,-0.2021,-0.2043,-0.2031,-0.2057,-0.2059,-0.205,-0.2051,-0.2051,-0.2042,-0.2041,-0.2056,-0.2056,-0.2056,0,-0.1774,-0.1786,-0.1805,-0.1827,-0.185,-0.1887,-0.1908,-0.1928,-0.1973,-0.1982,-0.2012,-0.2035,-0.2038,-0.2028,-0.2044,-0.2047,-0.2049,-0.2044,-0.2054,-0.2054,-0.2053,-0.2044,-0.2043,-0.2057,-0.2057,-0.2057,-0.2057,0,-0.1773,-0.1801,-0.1814,-0.1846,-0.187,-0.19,-0.1927,-0.1961,-0.2,-0.2009,-0.2035,-0.2046,-0.2056,-0.2062,-0.2063,-0.206,-0.2065,-0.2063,-0.2041,-0.2056,-0.2046,-0.2044,-0.206,-0.2059,-0.2059,-0.2058,0,0,-0.1732,-0.1797,-0.1805,-0.1836,-0.1889,-0.1907,-0.194,-0.1961,-0.1986,-0.202,-0.204,-0.2045,-0.206,-0.2055,-0.2061,-0.2053,-0.206,-0.2066,-0.2065,-0.2053,-0.2052,-0.1912,-0.1897,-0.2072,-0.2072,-0.2071,-0.205,0,-0.1731,-0.1775,-0.1804,-0.1851,-0.1879,-0.1925,-0.1952,-0.1979,-0.2009,-0.2038,-0.2033,-0.2059,-0.2053,-0.2081,-0.2067,-0.2071,-0.2055,-0.2066,-0.2042,-0.204,-0.191,-0.1889,-0.207,-0.2048,-0.2047,-0.2047,-0.2047,0,-0.1717,-0.1754,-0.1803,-0.187,-0.1887,-0.1924,-0.1979,-0.2006,-0.2033,-0.2061,-0.2069,-0.2078,-0.2072,-0.208,-0.2055,-0.2073,-0.2061,-0.2052,-0.2051,-0.1901,-0.1895,-0.2027,-0.2043,-0.2043,-0.2043,-0.2044,-0.2044,0,-0.1683,-0.175,-0.1794,-0.182,-0.1898,-0.1937,-0.1977,-0.2018,-0.2034,-0.2082,-0.2103,-0.2095,-0.2113,-0.2091,-0.2063,-0.2079,-0.2032,-0.2048,-0.1898,-0.1889,-0.2012,-0.2012,-0.2013,-0.2013,-0.2013,-0.2013,-0.2013,0,-0.1662,-0.1701,-0.1795,-0.1825,-0.187,-0.1941,-0.1985,-0.2025,-0.2077,-0.2072,-0.2118,-0.2104,-0.2122,-0.2091,-0.2066,-0.1957,-0.2028,-0.1876,-0.1861,-0.2028,-0.203,-0.2011,-0.2011,-0.2012,-0.2012,-0.2012,-0.2012,0,-0.161,-0.1682,-0.1731,-0.1828,-0.1861,-0.1895,-0.1977,-0.1993,-0.2074,-0.2078,-0.2096,-0.2119,-0.2074,-0.2056,-0.2019,-0.1943,-0.1871,-0.1815,-0.1988,-0.1988,-0.1741,-0.1743,-0.1648,-0.1642,-0.1638,-0.1634,-0.1631,0,-0.1578,-0.1608,-0.1708,-0.1733,-0.1784,-0.1849,-0.188,-0.1975,-0.1981,-0.2046,-0.2023,-0.2026,-0.2012,-0.1839,-0.1851,-0.1769,-0.1744,-0.1709,-0.1716,-0.1701,-0.1698,-0.1707,-0.1716,-0.1623,-0.1622,-0.1621,-0.162,0,-0.1496,-0.1552,-0.1585,-0.1637,-0.1687,-0.1716,-0.1774,-0.1774,-0.186,-0.1953,-0.1887,-0.184,-0.1782,-0.1727,-0.167,-0.1615,-0.1734,-0.1661,-0.1671,-0.1677,-0.1671,-0.1674,-0.1688,-0.1604,-0.1606,-0.1608,-0.1609,0,-0.1416,-0.1411,-0.1463,-0.1492,-0.1554,-0.1556,-0.1609,-0.1613,-0.164,-0.1734,-0.17,-0.1706,-0.1753,-0.1644,-0.1587,-0.152,-0.1501,-0.1459,-0.1479,-0.1497,-0.1452,-0.1422,-0.1241,0,0,0,0,0,-0.1309,-0.1287,-0.1306,-0.1325,-0.1389,-0.1419,-0.1512,-0.1571,-0.1672,-0.1577,-0.1637,-0.157,-0.1487,-0.1493,-0.1386,-0.151,-0.1506,-0.1382,-0.147,-0.1516,-0.1534,-0.1492,0,0,0,0,0,0,-0.1231,-0.124,-0.1245,-0.1184,-0.1173,-0.1212,-0.127,-0.1347,-0.1308,-0.1421,-0.1379,-0.1461,-0.1398,-0.1503,-0.1343,-0.1344,-0.1366,-0.14,-0.1395,-0.1505,-0.1522,-0.1537,-0.15,0,0,0,0,0]},{"header":{"parameterUnit":"m.s-1","parameterCategory":2,"la1":30.2991,"la2":30.254,"lo1":-89.0895,"lo2":-89.0444,"dy":0.0017,"dx":0.0017,"nx":28,"ny":28,"refTime":"2024-02-02T09:00:00:Z","depth":"4","parameterNumber":3,"parameterNumberName":"V-component_of_CURRENTS"},"data":[0,0,0,0,0,0,0,0,0,0,0,0,0,0,0,0,0,0,0,0,0,0,0,0,0,0,0,0,0,0,0,0,0,0,0,0,0,0,0,0,0,0,0,0,0,0,0,0,0,0,0,0,0,0,0,0,0,0,-0.0461,-0.0461,0,-0.0443,-0.0443,-0.0443,-0.0421,-0.042,-0.042,-0.042,-0.0362,-0.0361,-0.036,0,0,0,0,0,0,0,0,0,0,0,0,0,-0.045,-0.045,-0.0461,-0.0461,-0.046,-0.0443,-0.0443,-0.0443,-0.0421,-0.042,-0.042,-0.0419,-0.0362,-0.0361,-0.036,0,0,0,0,0,0,0,0,0,0,0,0,0,-0.0447,-0.0451,-0.0461,-0.0446,-0.0444,-0.0443,-0.0443,-0.0443,-0.0421,-0.042,-0.042,-0.0419,-0.0363,-0.0361,-0.036,-0.0364,0,0,-0.0355,-0.0354,0,0,0,0,0,0,0,0,-0.0447,-0.0448,-0.0449,-0.0447,-0.0445,-0.0432,-0.0418,-0.0414,-0.0421,-0.0432,-0.042,-0.0419,-0.0381,-0.0378,-0.0379,-0.0362,-0.0359,-0.0354,-0.0354,-0.0353,-0.0352,0,0,0,0,0,0,0,-0.0448,-0.0448,-0.0455,-0.0448,-0.0446,-0.0431,-0.0431,-0.0418,-0.0411,-0.0431,-0.0429,-0.0425,-0.038,-0.0381,-0.0377,-0.0358,-0.0355,-0.0353,-0.0352,-0.0351,-0.0332,-0.0332,0,0,0,0,0,0,-0.0449,-0.0449,-0.0456,-0.0455,-0.0443,-0.0432,-0.0431,-0.0438,-0.0412,-0.0407,-0.0425,-0.0424,-0.0384,-0.0379,-0.0375,-0.0376,-0.0353,-0.0351,-0.035,-0.0331,-0.0332,-0.0332,0,0,0,0,0,0,-0.0449,-0.0451,-0.0457,-0.0449,-0.0449,-0.0433,-0.0441,-0.0438,-0.0443,-0.0408,-0.0403,-0.0432,-0.0383,-0.0378,-0.0369,-0.0373,-0.0351,-0.0349,-0.0331,-0.0331,-0.0332,-0.0378,0,0,0,0,0,0,-0.0449,-0.0451,-0.0464,-0.045,-0.0449,-0.0464,-0.0442,-0.0439,-0.044,-0.0438,-0.0413,-0.0406,-0.0382,-0.0372,-0.0367,-0.037,-0.0348,-0.033,-0.0331,-0.0332,-0.0376,-0.038,-0.0384,0,0,0,0,0,-0.0449,-0.0468,-0.0465,-0.0466,-0.0466,-0.0464,-0.0464,-0.045,-0.0442,-0.045,-0.043,-0.0407,-0.0373,-0.0371,-0.0366,-0.0369,-0.033,-0.0331,-0.0332,-0.0374,-0.038,-0.0384,0,0,0,0,0,0,-0.0474,-0.0467,-0.0463,-0.0481,-0.0476,-0.046,-0.0468,-0.0458,-0.0452,-0.045,-0.0416,-0.0409,-0.0403,-0.0383,-0.0381,-0.0365,-0.0346,-0.0347,-0.0381,-0.0385,-0.0389,-0.039,-0.0347,0,0,0,0,0,-0.0485,-0.0498,-0.0485,-0.0503,-0.05,-0.0487,-0.0487,-0.048,-0.0467,-0.0464,-0.0444,-0.0422,-0.0404,-0.0393,-0.0377,-0.0371,-0.0323,-0.0369,-0.0373,-0.0376,-0.0373,-0.0305,-0.0302,-0.0336,-0.0335,-0.0335,0,0,-0.0501,-0.0499,-0.0507,-0.0509,-0.0504,-0.0509,-0.0486,-0.0492,-0.0497,-0.0459,-0.0462,-0.0439,-0.0407,-0.04,-0.0394,-0.0382,-0.0341,-0.0377,-0.038,-0.0376,-0.0306,-0.0302,-0.0299,-0.0336,-0.0336,-0.0336,0,0,-0.0533,-0.0536,-0.0552,-0.055,-0.0546,-0.0536,-0.054,-0.0529,-0.0525,-0.0527,-0.0496,-0.0474,-0.0458,-0.0426,-0.0409,-0.0426,-0.0368,-0.0425,-0.044,-0.0375,-0.0371,-0.0367,-0.0298,-0.0288,-0.0422,-0.0422,-0.0422,0,-0.0553,-0.057,-0.0558,-0.0568,-0.0568,-0.055,-0.0562,-0.0559,-0.0547,-0.054,-0.0536,-0.0493,-0.0467,-0.0437,-0.0442,-0.0433,-0.0386,-0.0425,-0.0378,-0.0373,-0.0368,-0.0299,-0.0287,-0.0425,-0.0424,-0.0424,-0.0424,0,-0.0588,-0.0602,-0.0611,-0.0616,-0.0616,-0.0627,-0.0612,-0.0614,-0.0606,-0.0593,-0.0574,-0.0536,-0.05,-0.0494,-0.0475,-0.0431,-0.0405,-0.0394,-0.0364,-0.0368,-0.0294,-0.0281,-0.0428,-0.0427,-0.0426,-0.0426,0,0,-0.0625,-0.0635,-0.0639,-0.0645,-0.0641,-0.0644,-0.065,-0.0643,-0.0634,-0.0627,-0.0603,-0.0579,-0.0546,-0.0524,-0.0488,-0.0438,-0.0364,-0.0407,-0.0402,-0.0335,-0.0211,-0.0223,-0.0209,-0.0343,-0.0341,-0.0339,-0.0171,0,-0.0656,-0.0687,-0.0678,-0.0702,-0.0712,-0.0694,-0.0695,-0.0686,-0.0667,-0.0639,-0.06,-0.0567,-0.056,-0.0531,-0.0483,-0.0391,-0.0332,-0.041,-0.022,-0.0214,-0.0222,-0.0195,-0.0333,-0.0161,-0.0158,-0.0156,-0.0154,0,-0.0687,-0.0702,-0.0736,-0.0735,-0.0736,-0.0748,-0.0732,-0.0731,-0.0688,-0.0665,-0.0626,-0.0582,-0.0511,-0.05,-0.0349,-0.0399,-0.031,-0.0243,-0.0235,-0.0221,-0.0202,-0.0157,-0.0129,-0.0131,-0.0132,-0.0134,-0.0136,0,-0.0714,-0.0735,-0.0765,-0.0769,-0.077,-0.0779,-0.0777,-0.0747,-0.0735,-0.0673,-0.064,-0.056,-0.05,-0.0395,-0.0276,-0.0296,-0.0102,-0.0104,-0.0029,-0.0028,-0.0046,-0.0052,0.0014,0.0014,0.0014,0.0013,0.0013,0,-0.0741,-0.0763,-0.0785,-0.0803,-0.0826,-0.0812,-0.0817,-0.0797,-0.0752,-0.0723,-0.0654,-0.0598,-0.047,-0.0354,-0.0253,-0.0101,-0.0074,-0.002,0.0016,-0.007,-0.0081,-0.0036,-0.0044,0.0019,0.0018,0.0017,0.0016,0,-0.0764,-0.0783,-0.0817,-0.0836,-0.0845,-0.0863,-0.0858,-0.085,-0.0799,-0.075,-0.0727,-0.0604,-0.0451,-0.0321,-0.0126,-0.0063,0.008,0.0129,0.0037,0.0063,0.0108,0.0095,0.0241,0.0242,0.0243,0.0244,0.0244,0,-0.0775,-0.08,-0.0849,-0.0873,-0.0889,-0.091,-0.092,-0.0887,-0.0863,-0.0754,-0.0721,-0.057,-0.048,-0.0201,-0.0081,0.0127,0.0138,0.0218,0.0147,0.0112,0.0133,0.0119,0.0105,0.0246,0.0246,0.0246,0.0246,0,-0.0788,-0.0817,-0.0846,-0.0903,-0.0935,-0.0956,-0.096,-0.0936,-0.0874,-0.0834,-0.0683,-0.0541,-0.0366,-0.0188,-0.0025,0.0111,0.0165,0.0227,0.0226,0.0159,0.0119,0.0136,0.0122,0.0249,0.0249,0.0248,0.0248,0,-0.0791,-0.0819,-0.0867,-0.0909,-0.0961,-0.0977,-0.0976,-0.0919,-0.0881,-0.075,-0.0703,-0.0514,-0.0405,-0.0193,-0.0049,0.0086,0.0108,0.0138,0.0141,0.0139,0.0035,-0.0035,0.0093,0,0,0,0,0,-0.0782,-0.0813,-0.0861,-0.0909,-0.0966,-0.0991,-0.0987,-0.0968,-0.0905,-0.0798,-0.0741,-0.0575,-0.0333,-0.0227,-0.009,-0.0062,0.0107,0.0099,0.0136,0.0265,0.0262,0.0153,0,0,0,0,0,0,-0.0773,-0.0825,-0.0854,-0.0905,-0.0938,-0.0987,-0.0985,-0.0945,-0.0864,-0.0784,-0.0649,-0.0562,-0.033,-0.0414,-0.0095,-0.0054,-0.0016,0.0215,0.0217,0.0267,0.0264,0.0261,0.0148,0,0,0,0,0]}]]